Location: Complexul Astronomic Baia Mare
(47.6577°N, 23.5639°E)
Time: 06:55:04
(UTC+03:00)

ISS - Pass Details

Date: 24 May 2017
Orbit: 402 x 408 km, 51.6° (Epoch: 29 May)

Event Time Altitude Azimuth Distance (km) Brightness Sun altitude
Rises 22:52:49 0° 231° (SW) 2,324 0.0 -13.6°
Reaches altitude 10° 22:54:55 10° 226° (SW) 1,466 -1.1 -13.8°
Maximum altitude 22:58:08 52° 149° (SSE) 511 -3.7 -14.1°
Drops below altitude 10° 23:01:21 10° 72° (ENE) 1,470 -1.2 -14.4°
Sets 23:03:28 0° 67° (ENE) 2,332 -0.1 -14.6°
